This demonstration page uses our WeatherBlox Daily Observations layout. Learn more.

Hourly Observations for October 15, 2019

Temp ( °F °C ) Dew Point ( °F °C ) Humidity (%) Winds ( mph kmh ) Pressure ( in mb ) Visibility ( mi km ) Precip ( " mm )
12:54 am 00:54 Clear 55 12.8 47 8.3 74 74 SE 3 6 29.77 1008 10 16.09344 0 0
1:54 am 01:54 Clear 54 12.2 48 8.9 80 80 SSW 3 6 29.77 1008 10 16.09344 0 0
2:54 am 02:54 Clear 51 10.6 47 8.3 86 86 SSW 5 7 29.8 1009 10 16.09344 0 0
3:54 am 03:54 Clear 54 12.2 45 7.2 72 72 NNW 12 19 29.83 1010 10 16.09344 0 0
4:54 am 04:54 Clear 52 11.1 41 5 66 66 NNW 10 17 29.85 1011 10 16.09344 0 0
5:54 am 05:54 Clear 50 10 40 4.4 68 68 NW 7 11 29.91 1013 10 16.09344 0 0
6:54 am 06:54 Clear 49 9.4 39 3.9 69 69 NW 9 15 29.97 1015 10 16.09344 0 0
7:54 am 07:54 Sunny 48 8.9 38 3.3 68 68 NW 10 17 29.97 1015 10 16.09344 0 0
8:54 am 08:54 Sunny 50 10 39 3.9 66 66 NNW 18 30 30.03 1017 10 16.09344 0 0
9:54 am 09:54 Sunny 52 11.1 36 2.2 55 55 NNW 21 33 30.03 1017 10 16.09344 0 0
10:54 am 10:54 Sunny 55 12.8 32 0 42 42 NNW 23 37 30.06 1018 10 16.09344 0 0
11:54 am 11:54 Sunny 57 13.9 30 -1.1 36 36 NNW 28 44 30.06 1018 10 16.09344 0 0
12:54 pm 12:54 Sunny 59 15 31 -0.6 35 35 NNW 22 35 30.06 1018 10 16.09344 0 0
1:54 pm 13:54 Sunny 59 15 32 0 36 36 NNW 24 39 30.06 1018 10 16.09344 0 0
2:54 pm 14:54 Sunny 60 15.6 30 -1.1 32 32 NNW 28 44 30.03 1017 10 16.09344 0 0
3:54 pm 15:54 Sunny 60 15.6 28 -2.2 30 30 NNW 28 44 30.06 1018 10 16.09344 0 0
4:54 pm 16:54 Sunny 58 14.4 29 -1.7 33 33 NNW 26 43 30.06 1018 10 16.09344 0 0
5:54 pm 17:54 Sunny 54 12.2 30 -1.1 40 40 N 26 43 30.12 1020 10 16.09344 0 0
6:54 pm 18:54 Mostly Cloudy 51 10.6 31 -0.6 46 46 NNW 16 26 30.15 1021 10 16.09344 0 0
7:54 pm 19:54 Cloudy 51 10.6 31 -0.6 46 46 NNW 18 30 30.15 1021 10 16.09344 0 0
8:54 pm 20:54 Mostly Cloudy 49 9.4 32 0 52 52 NNW 15 24 30.18 1022 10 16.09344 0 0
9:54 pm 21:54 Cloudy 49 9.4 33 0.6 55 55 NNW 15 24 30.18 1022 10 16.09344 0 0
10:54 pm 22:54 Cloudy 48 8.9 33 0.6 56 56 NNW 13 20 30.21 1023 10 16.09344 0 0
11:54 pm 23:54 Cloudy 48 8.9 34 1.1 58 58 NNW 17 28 30.21 1023 10 16.09344 0 0

Powered by AerisWeather